Location: De Greiden
(52.9496°N, 5.9137°E)
Time: 23:30:50
(UTC+00:00)

Cosmos 1833 Rocket - Pass Details

Date: 24 January 2021
Orbit: 833 x 839 km, 71.0° (Epoch: 01 March)

Event Time Altitude Azimuth Distance (km) Brightness Sun altitude
Rises 18:22:55 0° 328° (NNW) 3,393 6.2 -20.2°
Reaches altitude 10° 18:25:22 10° 329° (NNW) 2,456 5.4 -20.6°
Maximum altitude 18:31:01 88° 55° (NE) 843 2.6 -21.4°
Enters shadow 18:34:57 21° 149° (SSE) 1,816 4.2 -22.0°
